Weather History for Thermopolis, WY

Change the Weather History Date:

Thursday, November 29, 2012

  Actual Average (KWRL) Record (KWRL)
Temperature  
Mean Temperature 37 °F 23 °F  
Max Temperature 42 °F 36 °F 60 °F (1970)
Min Temperature 32 °F 10 °F -17 °F (1975)
Degree Days  
Heating Degree Days 28 42  
Month to date heating degree days 988  
Since 1 July heating degree days 1850  
Cooling Degree Days 0 0  
Month to date cooling degree days 0  
Year to date cooling degree days 535  
Moisture  
Dew Point 18 °F    
Average Humidity 45    
Maximum Humidity 60    
Minimum Humidity 31    
Precipitation  
Precipitation 0.00 in 0.01 in 0.15 in (1986)
Month to date precipitation 0.34  
Year to date precipitation 7.33  
Sea Level Pressure  
Sea Level Pressure 30.07 in    
Wind  
Wind Speed 16 mph ()    
Max Wind Speed 32 mph    
Max Gust Speed 48 mph    
Visibility 10.0 miles    
Events      
T = Trace of Precipitation, MM = Missing Value Source: Averaged Metar Reports

Daily Weather History Graph

Daily Weather History Graph

Search for Another Location

Airport:

Trip Planner

Search our weather history database for the weather conditions in past years. The results will help you decide how hot, cold, wet, or windy it might be!

Date:

Astronomy

Nov. 29, 2012 Rise Set
Actual Time 7:24 AM MST 4:38 PM MST
Civil Twilight 6:52 AM MST 5:10 PM MST
Nautical Twilight 6:16 AM MST 5:45 PM MST
Astronomical Twilight 5:42 AM MST 6:20 PM MST
Moon 5:43 PM MST (11/29) 8:13 AM MST (11/29)
Length of Visible Light 10h 18m
Length of Day
9h 14m
Full, 99% of the Moon is Illuminated
Nov 29
Full
Dec 6
Last Quarter
Dec 13
New
Dec 19
First Quarter
Dec 28
Full

Hourly Weather History & Observations

Time (MST) Temp. Windchill Dew Point Humidity Pressure Visibility Wind Dir Wind Speed Gust Speed Precip Events Conditions
12:15 AM 33.8 °F 22.2 °F 17.6 °F 52% 30.04 in 10.0 mi SE 20.7 mph - N/A   Clear
12:35 AM 33.8 °F 21.6 °F 17.6 °F 52% 30.02 in 10.0 mi SE 23.0 mph 26.5 mph N/A   Clear
12:55 AM 32.0 °F 20.8 °F 19.4 °F 60% 30.03 in 10.0 mi SE 17.3 mph - N/A   Clear
1:15 AM 32.0 °F 22.5 °F 19.4 °F 60% 30.03 in 10.0 mi SE 12.7 mph 24.2 mph N/A   Clear
1:35 AM 32.0 °F 24.2 °F 19.4 °F 60% 30.02 in 10.0 mi SE 9.2 mph - N/A   Clear
2:15 AM 33.8 °F 27.7 °F 17.6 °F 52% 30.03 in 10.0 mi SE 6.9 mph - N/A   Clear
2:35 AM 35.6 °F 28.0 °F 15.8 °F 44% 30.04 in 10.0 mi SE 10.4 mph - N/A   Clear
2:55 AM 37.4 °F 32.8 °F 14.0 °F 38% 30.05 in 10.0 mi SSE 5.8 mph - N/A   Clear
3:15 AM 37.4 °F 32.1 °F 14.0 °F 38% 30.05 in 10.0 mi South 6.9 mph - N/A   Scattered Clouds
3:35 AM 37.4 °F 29.8 °F 14.0 °F 38% 30.05 in 10.0 mi SSE 11.5 mph - N/A   Overcast
3:55 AM 35.6 °F 29.2 °F 14.0 °F 41% 30.05 in 10.0 mi SSE 8.1 mph - N/A   Overcast
4:15 AM 37.4 °F 29.3 °F 14.0 °F 38% 30.04 in 10.0 mi South 12.7 mph - N/A   Overcast
4:35 AM 37.4 °F 28.5 °F 15.8 °F 41% 30.04 in 10.0 mi South 15.0 mph - N/A   Overcast
4:55 AM 37.4 °F 28.5 °F 21.2 °F 52% 30.03 in 10.0 mi South 15.0 mph 25.3 mph N/A   Mostly Cloudy
5:15 AM 37.4 °F 27.5 °F 21.2 °F 52% 30.03 in 10.0 mi SSW 18.4 mph 21.9 mph N/A   Scattered Clouds
5:35 AM 35.6 °F 25.9 °F 21.2 °F 56% 30.03 in 10.0 mi South 16.1 mph - N/A   Scattered Clouds
5:55 AM 35.6 °F 25.5 °F 21.2 °F 56% 30.04 in 10.0 mi SSW 17.3 mph - N/A   Clear
6:15 AM 35.6 °F 26.2 °F 23.0 °F 60% 30.03 in 10.0 mi SSW 15.0 mph - N/A   Clear
6:35 AM 35.6 °F 25.9 °F 23.0 °F 60% 30.03 in 10.0 mi South 16.1 mph - N/A   Clear
7:15 AM 35.6 °F 24.8 °F 23.0 °F 60% 30.04 in 10.0 mi SW 19.6 mph 26.5 mph N/A   Clear
7:35 AM 37.4 °F 26.9 °F 24.8 °F 60% 30.04 in 10.0 mi SW 20.7 mph 31.1 mph N/A   Clear
8:15 AM 35.6 °F 23.2 °F 23.0 °F 60% 30.03 in 10.0 mi SSW 26.5 mph 33.4 mph N/A   Clear
8:35 AM 35.6 °F 23.0 °F 23.0 °F 60% 30.04 in 10.0 mi SSW 27.6 mph 39.1 mph N/A   Clear
8:55 AM 37.4 °F 25.0 °F 21.2 °F 52% 30.06 in 10.0 mi WSW 29.9 mph 41.4 mph N/A   Clear
9:15 AM 37.4 °F 26.1 °F 19.4 °F 48% 30.08 in 10.0 mi SW 24.2 mph 36.8 mph N/A   Clear
9:35 AM 37.4 °F 27.5 °F 19.4 °F 48% 30.08 in 10.0 mi SW 18.4 mph 27.6 mph N/A   Clear
10:15 AM 39.2 °F 27.0 °F 19.4 °F 45% 30.09 in 10.0 mi WSW 32.2 mph 41.4 mph N/A   Clear
10:35 AM 39.2 °F 27.2 °F 19.4 °F 45% 30.07 in 10.0 mi SW 31.1 mph 48.3 mph N/A   Clear
10:55 AM 41.0 °F 29.5 °F 15.8 °F 36% 30.07 in 10.0 mi SW 32.2 mph 42.6 mph N/A   Clear
11:15 AM 41.0 °F 30.5 °F 17.6 °F 39% 30.07 in 10.0 mi SSW 26.5 mph 47.2 mph N/A   Clear
11:35 AM 41.0 °F 29.5 °F 17.6 °F 39% 30.06 in 10.0 mi SSW 32.2 mph 46.0 mph N/A   Clear
11:55 AM 41.0 °F 29.8 °F 19.4 °F 42% 30.07 in 10.0 mi SW 29.9 mph 39.1 mph N/A   Clear
12:15 PM 41.0 °F 29.5 °F 17.6 °F 39% 30.06 in 10.0 mi SSW 32.2 mph 42.6 mph N/A   Clear
12:35 PM 41.0 °F 30.5 °F 17.6 °F 39% 30.07 in 10.0 mi SW 26.5 mph 41.4 mph N/A   Clear
12:55 PM 41.0 °F 29.5 °F 17.6 °F 39% 30.06 in 10.0 mi SSW 32.2 mph 39.1 mph N/A   Clear
1:15 PM 41.0 °F 31.1 °F 19.4 °F 42% 30.07 in 10.0 mi SW 23.0 mph 33.4 mph N/A   Clear
1:35 PM 41.0 °F 31.6 °F 17.6 °F 39% 30.07 in 10.0 mi SSW 20.7 mph 32.2 mph N/A   Clear
1:55 PM 42.8 °F 34.0 °F 17.6 °F 36% 30.07 in 10.0 mi SW 20.7 mph 25.3 mph N/A   Clear
2:15 PM 41.0 °F 34.7 °F 17.6 °F 39% 30.08 in 10.0 mi SW 10.4 mph - N/A   Clear
2:35 PM 41.0 °F 33.5 °F 17.6 °F 39% 30.08 in 10.0 mi WSW 13.8 mph - N/A   Clear
2:55 PM 41.0 °F 33.1 °F 15.8 °F 36% 30.08 in 10.0 mi SW 15.0 mph 18.4 mph N/A   Clear
3:15 PM 41.0 °F 34.3 °F 14.0 °F 33% 30.08 in 10.0 mi SSW 11.5 mph 16.1 mph N/A   Clear
3:35 PM 41.0 °F 32.5 °F 12.2 °F 31% 30.08 in 10.0 mi SW 17.3 mph 21.9 mph N/A   Clear
3:55 PM 41.0 °F 33.5 °F 12.2 °F 31% 30.08 in 10.0 mi SW 13.8 mph 24.2 mph N/A   Clear
4:15 PM 41.0 °F 32.5 °F 12.2 °F 31% 30.08 in 10.0 mi SSW 17.3 mph 23.0 mph N/A   Clear
4:35 PM 41.0 °F 32.8 °F 12.2 °F 31% 30.08 in 10.0 mi SW 16.1 mph 21.9 mph N/A   Clear
4:55 PM 39.2 °F 33.0 °F 14.0 °F 36% 30.09 in 10.0 mi SE 9.2 mph - N/A   Clear
5:15 PM 39.2 °F 30.2 °F 14.0 °F 36% 30.08 in 10.0 mi ESE 17.3 mph - N/A   Clear
5:35 PM 39.2 °F 29.3 °F 14.0 °F 36% 30.08 in 10.0 mi SSW 20.7 mph 25.3 mph N/A   Clear
5:55 PM 39.2 °F 31.6 °F 14.0 °F 36% 30.08 in 10.0 mi SSE 12.7 mph 20.7 mph N/A   Clear
6:15 PM 35.6 °F 25.9 °F 19.4 °F 52% 30.10 in 10.0 mi SE 16.1 mph - N/A   Clear
6:35 PM 37.4 °F 27.2 °F 19.4 °F 48% 30.09 in 10.0 mi SSW 19.6 mph - N/A   Clear
6:55 PM 37.4 °F 30.8 °F 17.6 °F 45% 30.12 in 10.0 mi SE 9.2 mph 17.3 mph N/A   Clear
7:15 PM 37.4 °F 28.2 °F 19.4 °F 48% 30.10 in 10.0 mi SW 16.1 mph - N/A   Clear
7:35 PM 37.4 °F 28.9 °F 19.4 °F 48% 30.10 in 10.0 mi South 13.8 mph - N/A   Clear
7:55 PM 41.0 °F 34.3 °F 17.6 °F 39% 30.11 in 10.0 mi SSW 11.5 mph - N/A   Clear
8:15 PM 39.2 °F 32.0 °F 17.6 °F 42% 30.10 in 10.0 mi SSW 11.5 mph 18.4 mph N/A   Clear
8:35 PM 39.2 °F 30.8 °F 17.6 °F 42% 30.10 in 10.0 mi South 15.0 mph - N/A   Clear
8:55 PM 39.2 °F 30.8 °F 17.6 °F 42% 30.10 in 10.0 mi South 15.0 mph - N/A   Clear
9:15 PM 37.4 °F 28.2 °F 19.4 °F 48% 30.08 in 10.0 mi South 16.1 mph - N/A   Clear
9:35 PM 37.4 °F 29.8 °F 19.4 °F 48% 30.10 in 10.0 mi South 11.5 mph - N/A   Clear
9:55 PM 37.4 °F 28.5 °F 19.4 °F 48% 30.11 in 10.0 mi SSW 15.0 mph - N/A   Clear
10:35 PM 37.4 °F 28.2 °F 19.4 °F 48% 30.09 in 10.0 mi South 16.1 mph 19.6 mph N/A   Clear
10:55 PM 37.4 °F 28.5 °F 19.4 °F 48% 30.09 in 10.0 mi South 15.0 mph - N/A   Clear
11:15 PM 37.4 °F 29.8 °F 19.4 °F 48% 30.10 in 10.0 mi South 11.5 mph - N/A   Clear
11:35 PM 39.2 °F 31.6 °F 17.6 °F 42% 30.10 in 10.0 mi South 12.7 mph - N/A   Clear
11:55 PM 39.2 °F 32.0 °F 17.6 °F 42% 30.09 in 10.0 mi South 11.5 mph - N/A   Clear